Location: Linz
(48.3300°N, 14.3000°E)
Time: 10:34:25
(UTC+01:00)

Tiangong 2 - Visible Passes

Search period start: 20 November 2017 00:00
Search period end: 30 November 2017 00:00
Orbit: 386 x 391 km, 42.8° (Epoch: 20 November)

Date Brightness Start Highest point End Pass type
(mag) Time Alt. Az. Time Alt. Az. Time Alt. Az.
27 Nov 3.9 06:50:31 10° SSW 06:52:50 18° SSE 06:55:08 10° ESE visible
28 Nov 4.0 05:53:08 10° S 05:54:49 14° SSE 05:56:32 10° ESE visible
29 Nov 3.3 06:30:20 10° SW 06:32:58 24° SSE 06:35:37 10° ESE visible
